Showing default

BRO-8, 55011

Orbit data source: Space-Track

BRO-8, 55011 is a payload satellite owned by Unseen Labs (FR) in SSO that was launched on Tue, 03 Jan 2023 UTC via an FALCON 9 launch vehicle from the Air Force Eastern Test Range (AFETR). Payload-class satellites include a variety of spacecraft equipped with specific instruments for various scientific and technological missions. These include communications satellites like Starlink; space stations such as the ISS; scientific satellites like the Hubble; Earth observation satellites from companies like Planet Labs, Umbra, and HawkEye 360; GPS; miniature CubeSats for education and research; and military/defense satellites.

Loading next visibility...
Identifier
55011, 2023-001C
Orbit
SSO
Country
Flag of FRFR
Related business
Manufacturer
GOMSpace
Mission
Operational Commercial Sigint
Bus & Motor
CUBESAT 6U, Unknown motor
Mass
10 kg wet, ~10 kg dry
Launch date (UTC)
2023-01-03 (3 years ago)
Launch vehicle
FALCON 9
Launch site
Air Force Eastern Test Range (AFETR)
Object type
Payload
Rocket body
Debris
Shape & HBR
Box, 0.1 m
Radar Cross Section
0.080 m², Medium (>0.1 m² and < 1m²)

Expand to show TLE details & history
Last TLE update: 9 hours ago

TLE from 9 hours ago
0 BRO-8
1 55011U 23001C   26035.28386880  .00029209  00000-0  70701-3 0  9997
2 55011  97.3416  99.2118 0005859 237.5099 122.5582 15.41054064171684
Epoch: 2026-02-04T06:48Z
TLE epoch observation values (Epoch: 2026-02-04T06:48:46.264Z)
Latitude
0.00001°
Longitude
-137.43363°
Altitude
448.271 km
Speed
7.642 km/s
True Right ascension
06h 36m 50s
True Declination
0° 00' 00"
Sunlit
Object was in full shadow at epoch
Visualization orbit readout
Latitude
Unknown
Longitude
Unknown
Altitude
Unknown
Speed
Unknown
Apparent Right ascension
Unknown
Apparent Declination
Unknown
Sunlit
N/A
Visualization observer readout
Local Sidereal Time
17:21:07
Azimuth
Unknown
Elevation
Unknown
Doppler factor
Unknown
Orbital elements
Apogee altitude
443.927 km
Perigee altitude
435.937 km
Semi-major axis
6,818.069 km
Eccentricity
0.00059
Inclination
97.3416°
RAAN
99.2118°
Arg. of periapsis
237.5099°
True anomaly
122.61477°
Mean anomaly
122.5582°
Eccentric anomaly
122.58649°
Mean motion
3.85524 °/min
Orbital period
93.38 mins
BSTAR
0.00070701
Loading maneuver chart data...
Computing Atmospheric mass density...

Documentation

Showing up to 5 results
|